sat.trackr.live / text

‹ back to catalog

STARLINK-35467

NORAD 66343 · 2025-253AA

PAYLOAD ACTIVE UNKNOWN

§ Identity

Operator
Country
US
Launch date
2025-11-06
Launch site
AFETR
Launch vehicle
Mass (kg)
RCS (m²)

Purposes: comms

External: N2YO · Heavens-Above · Gunter

§ Orbital elements

Epoch: 2026-09-20T03:52:46.351776Z

Period
94.27 min
Inclination
42.9986°
Eccentricity
0.0001300
Mean motion
15.27597764 rev/d
Perigee alt
482.1 km
Apogee alt
483.9 km
Semi-major
6,861.1 km
B*
6.4537e-4
RAAN
194.4730°
Arg perigee
264.0231°
Mean anomaly
96.0473°
Rev number
4,998

§ Raw data

STARLINK-354671 66343U 25253AA  26263.16164759  .00017549  00000+0  64537-3 0  99902 66343  42.9986 194.4730 0001300 264.0231  96.0473 15.27597764 49984

JSON: /api/v1/satellites/66343 · /tle

For live sub-satellite position, see the globe view (requires WebGL).

§ Visibility from observer

Set your observer location to see the next 7 days of passes ≥ 10°. The values pass through the URL so the page stays shareable.

No JS? Fill the form by hand. The geolocation button needs JavaScript.